This is the latest recevied weather packets stored in our database for station/object DB0WUN-13. If no packets are shown the sender has not sent any weather packets the latest 10 day(s).
| Time | Temp. | Humidity | Pressure | Rain* | Wind** | Luminosity | Snow |
|---|---|---|---|---|---|---|---|
| 1777642530 | 18.33° C | 41% | 1027 hPa | 0 mm | - | 707 W/m² | - |
| 1777642489 | 17.78° C | 41% | 1027.2 hPa | 0 mm | - | 708 W/m² | - |
| 1777642452 | 17.78° C | 40% | 1027.1 hPa | 0 mm | - | 712 W/m² | - |
| 1777642285 | 17.78° C | 39% | 1027.1 hPa | 0 mm | - | 714 W/m² | - |
| 1777642226 | 17.78° C | 40% | 1027.2 hPa | 0 mm | - | 714 W/m² | - |
| 1777642167 | 17.78° C | 40% | 1027.1 hPa | 0 mm | - | 719 W/m² | - |
| 1777642105 | 17.78° C | 41% | 1027.1 hPa | 0 mm | - | 721 W/m² | - |
| 1777642046 | 17.78° C | 41% | 1027.1 hPa | 0 mm | - | 724 W/m² | - |
| 1777641981 | 17.78° C | 40% | 1027.1 hPa | 0 mm | - | 726 W/m² | - |
| 1777641925 | 17.78° C | 41% | 1027.2 hPa | 0 mm | - | 726 W/m² | - |
| 1777641857 | 17.78° C | 40% | 1027.2 hPa | 0 mm | - | 728 W/m² | - |
| 1777641796 | 17.78° C | 41% | 1027.2 hPa | 0 mm | - | 731 W/m² | - |
| 1777641739 | 17.78° C | 41% | 1027.2 hPa | 0 mm | - | 733 W/m² | - |
| 1777641674 | 17.78° C | 41% | 1027.2 hPa | 0 mm | - | 735 W/m² | - |
| 1777641623 | 17.78° C | 40% | 1027.2 hPa | 0 mm | - | 735 W/m² | - |
| 1777641557 | 17.78° C | 41% | 1027.3 hPa | 0 mm | - | 737 W/m² | - |
| 1777641494 | 17.78° C | 40% | 1027.3 hPa | 0 mm | - | 740 W/m² | - |
| 1777641435 | 17.78° C | 40% | 1027.3 hPa | 0 mm | - | 742 W/m² | - |
| 1777641375 | 18.33° C | 42% | 1027.2 hPa | 0 mm | - | 744 W/m² | - |
| 1777641328 | 17.78° C | 40% | 1027.2 hPa | 0 mm | - | 747 W/m² | - |
| 1777641261 | 18.33° C | 39% | 1027.3 hPa | 0 mm | - | 747 W/m² | - |
| 1777641197 | 18.33° C | 40% | 1027.2 hPa | 0 mm | - | 747 W/m² | - |
| 1777641133 | 18.33° C | 40% | 1027.3 hPa | 0 mm | - | 749 W/m² | - |
| 1777641074 | 18.33° C | 40% | 1027.2 hPa | 0 mm | - | 751 W/m² | - |
| 1777641022 | 18.33° C | 39% | 1027.3 hPa | 0 mm | - | 754 W/m² | - |
* Rain latest hour (hover to see other rain measurements)
** Current wind speed in m/s (hover to see current wind gust speed)